Location: Dalton
(34.7700°N, 84.9700°W)
Time: 22:14:50
(UTC-04:00)

ISS - Pass Details

Date: 16 October 2017
Orbit: 401 x 408 km, 51.6° (Epoch: 23 October)

Event Time Altitude Azimuth Distance (km) Brightness Sun altitude
Rises 20:54:22 0° 292° (WNW) 2,321 1.3 -23.5°
Reaches altitude 10° 20:57:14 10° 264° (W) 1,458 0.0 -24.1°
Maximum altitude 20:58:55 13° 233° (SW) 1,265 -0.8 -24.4°
Enters shadow 21:00:10 11° 209° (SSW) 1,371 -0.9 -24.7°
